Terug naar catalogus

DMSP 5D-2 F13 DEB

ActiefPO
NORAD 42262·DEBRIS·🇺🇸 United States

Gelanceerd Mar 24, 1995 vanaf Vandenberg Space Force Base

Loading…

Volgende Passages (komende 24 uur)

TLE

VersSource: Space-Track

Epoch: Sep 14, 2026, 10:32 UTC

1 42262U 95015GC  26257.43896332  .00010717  00000-0  15374-2 0  9994
2 42262  98.5102 332.7365 0024502 102.6420 257.7530 14.76493583599541

Volg DMSP 5D-2 F13 DEB in realtime met AllMySat

Download on the App Store